Weather History for Sioux City, IA

Change the Weather History Date:

Wednesday, January 30, 2013

  Actual Average Record
Temperature  
Mean Temperature 17 °F 21 °F  
Max Temperature 27 °F 32 °F 65 °F (2012)
Min Temperature 7 °F 11 °F -23 °F (1918)
Degree Days  
Heating Degree Days 48 44  
Month to date heating degree days 1306 1342  
Since 1 July heating degree days 3989 4134  
Cooling Degree Days 0 0  
Month to date cooling degree days 0 0  
Year to date cooling degree days 0 0  
Moisture  
Dew Point 10 °F    
Average Humidity 74    
Maximum Humidity 81    
Minimum Humidity 67    
Precipitation  
Precipitation T in 0.02 in 0.21 in (1947)
Month to date precipitation 0.19 0.60  
Year to date precipitation 0.19 0.60  
Snow  
Snow T in 0.30 in 2.90 in (1947)
Month to date snowfall 1.4 6.5  
Since 1 July snowfall 11.4 19.7  
Snow Depth 0.00 in    
Sea Level Pressure  
Sea Level Pressure 29.85 in    
Wind  
Wind Speed 20 mph (NW)    
Max Wind Speed 25 mph    
Max Gust Speed 37 mph    
Visibility 9 miles    
Events Snow    
T = Trace of Precipitation, MM = Missing Value Source: NWS Daily Summary

Daily Weather History Graph

Daily Weather History Graph

Search for Another Location

Airport:

Trip Planner

Search our weather history database for the weather conditions in past years. The results will help you decide how hot, cold, wet, or windy it might be!

Date:

Astronomy

Jan. 30, 2013 Rise Set
Actual Time 7:40 AM CST 5:37 PM CST
Civil Twilight 7:10 AM CST 6:07 PM CST
Nautical Twilight 6:37 AM CST 6:41 PM CST
Astronomical Twilight 6:04 AM CST 7:14 PM CST
Moon 9:43 PM CST (1/30) 9:03 AM CST (1/30)
Length of Visible Light 10h 56m
Length of Day
9h 56m
Waning Gibbous, 87% of the Moon is Illuminated
Jan 30
Waning Gibbous
Feb 3
Last Quarter
Feb 10
New
Feb 17
First Quarter
Feb 25
Full

Hourly Weather History & Observations

Time (CST) Temp. Windchill Dew Point Humidity Pressure Visibility Wind Dir Wind Speed Gust Speed Precip Events Conditions
12:52 AM 26.1 °F 10.7 °F 19.9 °F 78% 29.75 in 10.0 mi NNW 25.3 mph 33.4 mph N/A   Overcast
1:52 AM 25.0 °F 9.5 °F 19.0 °F 78% 29.77 in 10.0 mi North 24.2 mph 33.4 mph 0.00 in   Overcast
2:52 AM 25.0 °F 10.6 °F 18.0 °F 75% 29.80 in 7.0 mi North 20.7 mph 32.2 mph 0.00 in Snow Light Snow
3:07 AM 24.8 °F - 17.6 °F 74% 29.76 in - North - - 0.00 in   Unknown
3:52 AM - - - N/A% 29.76 in - North - - 0.00 in   Unknown
4:52 AM - - - N/A% 29.76 in - North - - N/A   Unknown
5:52 AM - - - N/A% 29.76 in - North - - N/A   Unknown
6:52 AM - - - N/A% 29.77 in - North - - N/A   Unknown
7:52 AM - - - N/A% 29.79 in - North - - N/A   Unknown
8:52 AM - - - N/A% 29.81 in - North - - N/A   Unknown
9:11 AM - - - N/A% 29.81 in 3.0 mi NW 25.3 mph 33.4 mph N/A   Overcast
9:49 AM 19.4 °F 2.1 °F 14.0 °F 80% 29.82 in - NW 24.2 mph 32.2 mph 0.00 in   Unknown
9:52 AM 19.9 °F 2.5 °F 12.9 °F 74% 29.87 in 9.0 mi NNW 25.3 mph 32.2 mph 0.00 in   Unknown
10:00 AM 19.4 °F 1.8 °F 12.2 °F 74% 29.82 in 10.0 mi NNW 25.3 mph 32.2 mph N/A   Overcast
10:17 AM 19.4 °F 1.4 °F 12.2 °F 74% 29.82 in 10.0 mi NNW 26.5 mph 36.8 mph N/A   Overcast
10:20 AM 19.4 °F 1.1 °F 12.2 °F 74% 29.82 in 10.0 mi NNW 27.6 mph 36.8 mph N/A   Overcast
10:31 AM 19.4 °F 2.1 °F 12.2 °F 74% 29.82 in 9.0 mi NNW 24.2 mph 33.4 mph 0.00 in Snow Light Snow
10:52 AM 19.9 °F 2.5 °F 12.0 °F 71% 29.88 in 9.0 mi NW 25.3 mph 32.2 mph 0.00 in   Overcast
11:52 AM 19.9 °F 2.8 °F 12.0 °F 71% 29.87 in 8.0 mi NW 24.2 mph 31.1 mph 0.00 in Snow Light Snow
12:16 PM 19.4 °F 2.5 °F 12.2 °F 74% 29.82 in 10.0 mi NW 23.0 mph 31.1 mph 0.00 in   Overcast
12:52 PM 19.9 °F 3.9 °F 12.0 °F 71% 29.87 in 10.0 mi NW 20.7 mph 28.8 mph 0.00 in   Overcast
1:20 PM 19.4 °F 2.5 °F 12.2 °F 74% 29.82 in 6.0 mi NW 23.0 mph 29.9 mph 0.00 in Snow Light Snow
1:52 PM 19.9 °F 2.2 °F 12.0 °F 71% 29.87 in 9.0 mi NW 26.5 mph 32.2 mph 0.00 in Snow Light Snow
2:48 PM 21.2 °F 6.4 °F 12.2 °F 68% 29.81 in 10.0 mi NW 18.4 mph 26.5 mph 0.00 in   Overcast
2:52 PM 21.9 °F 6.2 °F 12.0 °F 66% 29.86 in 10.0 mi NNW 21.9 mph 28.8 mph 0.00 in   Overcast
3:00 PM 21.2 °F 4.9 °F 12.2 °F 68% 29.82 in 10.0 mi NNW 23.0 mph - N/A   Overcast
3:52 PM 19.9 °F 3.2 °F 10.9 °F 68% 29.83 in 7.0 mi WNW 23.0 mph 27.6 mph N/A   Overcast
4:21 PM 19.4 °F 3.6 °F 10.4 °F 68% 29.83 in 9.0 mi NW 19.6 mph 28.8 mph 0.00 in Snow Light Snow
4:52 PM 18.0 °F 1.3 °F 10.0 °F 71% 29.84 in 9.0 mi NW 20.7 mph 27.6 mph 0.00 in Snow Light Snow
5:23 PM 17.6 °F 2.7 °F 10.4 °F 73% 29.85 in 9.0 mi NW 16.1 mph - 0.00 in Snow Light Snow
5:43 PM 17.6 °F 1.7 °F 10.4 °F 73% 29.86 in 1.8 mi NNW 18.4 mph - 0.00 in Snow Light Snow
5:52 PM 16.0 °F 0.1 °F 10.9 °F 81% 29.87 in 3.0 mi NW 17.3 mph - 0.00 in Snow Light Snow
6:52 PM 15.1 °F 0.5 °F 9.0 °F 77% 29.88 in 9.0 mi NW 13.8 mph - 0.00 in Snow Light Snow
7:52 PM 12.9 °F -2.8 °F 7.0 °F 77% 29.88 in 10.0 mi NW 15.0 mph - 0.00 in   Mostly Cloudy
8:00 PM 12.2 °F -3.7 °F 6.8 °F 79% 29.89 in 10.0 mi NW 15.0 mph - N/A   Scattered Clouds
8:27 PM 12.2 °F -3.7 °F 6.8 °F 79% 29.88 in 10.0 mi NW 15.0 mph - N/A   Mostly Cloudy
8:37 PM 12.2 °F -1.8 °F 6.8 °F 79% 29.90 in 9.0 mi NW 11.5 mph - 0.00 in Snow Light Snow
8:52 PM 12.0 °F -2.0 °F 6.1 °F 77% 29.89 in 10.0 mi NW 11.5 mph - 0.00 in   Mostly Cloudy
9:52 PM 10.9 °F -4.1 °F 3.9 °F 73% 29.97 in 10.0 mi NW 12.7 mph 17.3 mph 0.00 in   Mostly Cloudy
10:01 PM 10.4 °F -4.8 °F 3.2 °F 73% 29.90 in 10.0 mi NW 12.7 mph - N/A   Mostly Cloudy
10:52 PM 10.0 °F -5.2 °F 3.9 °F 76% 29.97 in 10.0 mi NW 12.7 mph - N/A   Mostly Cloudy
11:02 PM 10.4 °F -5.4 °F 3.2 °F 73% 29.91 in 10.0 mi NNW 13.8 mph - N/A   Partly Cloudy
11:22 PM 8.6 °F -11.9 °F 3.2 °F 79% 29.92 in 7.0 mi NW 23.0 mph 27.6 mph 0.00 in Snow Light Snow
11:52 PM 7.0 °F -11.0 °F -0.0 °F 73% 30.00 in 10.0 mi NW 16.1 mph - 0.00 in   Partly Cloudy